Springfield, OH

12:16 AM EDT on May 25, 2018 (GMT -0400)
Springfield-Beckley Municipal

Weather History for KSGH - November, 2012

Change the Weather History Date:

Friday, November 30, 2012

  Actual Average (KFFO) Record (KFFO)
Temperature  
Mean Temperature 42 °F -  
Max Temperature 54 °F 45 °F 68 °F (1998)
Min Temperature 29 °F 30 °F 17 °F (1999)
Degree Days  
Heating Degree Days 24    
Moisture  
Dew Point 29 °F    
Average Humidity 60    
Maximum Humidity 75    
Minimum Humidity 40    
Precipitation  
Precipitation 0.00 in - - ()
Sea Level Pressure  
Sea Level Pressure 30.23 in    
Wind  
Wind Speed 8 mph (SSW)    
Max Wind Speed 14 mph    
Max Gust Speed -    
Visibility 7 miles    
Events      
Averages and records for this station are not official NWS values.
T = Trace of Precipitation, MM = Missing Value Source: NWS Daily Summary

Daily Weather History Graph

Daily Weather History Graph

Search for Another Location

Airport or City:

Astronomy

Nov. 30, 2012 Rise Set
Actual Time 7:37 AM EST 5:11 PM EST
Civil Twilight 7:07 AM EST 5:41 PM EST
Nautical Twilight 6:33 AM EST 6:14 PM EST
Astronomical Twilight 6:01 AM EST 6:47 PM EST
Moon 7:05 PM EST (11/30) 9:08 AM EST (11/30)
Length of Visible Light 10h 34m
Length of Day
9h 34m
Waning Gibbous, 96% of the Moon is Illuminated
Nov 30
Waning Gibbous
Dec 6
Last Quarter
Dec 13
New
Dec 20
First Quarter
Dec 28
Full

Hourly Weather History & Observations

Time (EST) Temp. Windchill Dew Point Humidity Pressure Visibility Wind Dir Wind Speed Gust Speed Precip Events Conditions
12:56 AM 34.0 °F 28.8 °F 24.1 °F 67% 30.27 in 7.0 mi SSE 5.8 mph - N/A   Mostly Cloudy
1:56 AM 32.9 °F 27.5 °F 24.1 °F 70% 30.26 in 7.0 mi SE 5.8 mph - N/A   Partly Cloudy
2:56 AM 30.0 °F 23.2 °F 23.0 °F 75% 30.26 in 7.0 mi SE 6.9 mph - N/A   Clear
3:56 AM 32.9 °F 26.7 °F 24.1 °F 70% 30.25 in 7.0 mi SSE 6.9 mph - N/A   Clear
4:56 AM 29.1 °F 24.1 °F 22.1 °F 75% 30.26 in 7.0 mi SE 4.6 mph - N/A   Clear
5:56 AM 34.0 °F 28.0 °F 24.1 °F 67% 30.26 in 8.0 mi South 6.9 mph - N/A   Clear
6:56 AM 34.0 °F 26.6 °F 24.1 °F 67% 30.26 in 8.0 mi SSE 9.2 mph - N/A   Clear
7:56 AM 32.0 °F 24.2 °F 24.1 °F 73% 30.26 in 7.0 mi SSE 9.2 mph - N/A   Clear
8:56 AM 36.0 °F 31.1 °F 26.1 °F 67% 30.27 in 7.0 mi South 5.8 mph - N/A   Clear
9:56 AM 43.9 °F 37.5 °F 28.0 °F 54% 30.27 in 7.0 mi SSW 12.7 mph - N/A   Clear
10:56 AM 45.9 °F 39.7 °F 28.0 °F 50% 30.24 in 7.0 mi SW 13.8 mph - N/A   Clear
11:56 AM 50.9 °F - 29.1 °F 43% 30.21 in 7.0 mi SSW 13.8 mph - N/A   Clear
12:56 PM 52.0 °F - 30.0 °F 43% 30.19 in 7.0 mi SW 12.7 mph - N/A   Scattered Clouds
1:56 PM 54.0 °F - 31.1 °F 42% 30.18 in 7.0 mi SSW 11.5 mph - N/A   Scattered Clouds
2:56 PM 54.9 °F - 31.1 °F 40% 30.18 in 6.0 mi SW 13.8 mph - N/A   Haze
3:56 PM 52.9 °F - 31.1 °F 43% 30.17 in 7.0 mi SSW 9.2 mph - N/A   Overcast
4:56 PM 50.9 °F - 31.1 °F 47% 30.19 in 7.0 mi SSW 6.9 mph - N/A   Clear
5:56 PM 48.9 °F - 32.0 °F 52% 30.20 in 8.0 mi SSW 6.9 mph - N/A   Mostly Cloudy
6:56 PM 47.8 °F - 32.0 °F 54% 30.20 in 8.0 mi South 5.8 mph - N/A   Mostly Cloudy
7:56 PM 45.0 °F 41.8 °F 32.9 °F 63% 30.23 in 8.0 mi SSW 5.8 mph - N/A   Partly Cloudy
8:56 PM 43.0 °F 38.2 °F 34.0 °F 71% 30.23 in 8.0 mi SW 8.1 mph - N/A   Partly Cloudy
9:56 PM 47.8 °F - 36.9 °F 66% 30.23 in 7.0 mi WSW 12.7 mph - N/A   Overcast
10:56 PM 47.8 °F - 36.0 °F 63% 30.22 in 7.0 mi WSW 12.7 mph - N/A   Overcast
11:56 PM 46.9 °F - 36.0 °F 66% 30.22 in 7.0 mi WSW 8.1 mph - N/A   Overcast